Probability
0 0 0 0 0 0 0 0 0 0 0 1 3 4 5 5 5 5 7 11 14 18 21 24 24 21 19 20 19 14 9 7 5 2 0 0 0 0 0 0 0 0 0
0 0 0 0 0 0 0 0 0 0 0 1 2 3 4 5 5 5 8 11 14 17 20 25 25 23 20 19 19 17 12 9 7 4 1 0 0 0 0 0 0 0 0
0 0 0 0 0 0 0 0 0 0 0 1 1 1 2 4 5 5 9 13 15 17 19 22 25 23 19 16 17 18 15 12 10 6 4 2 0 0 0 0 0 0 0
0 0 0 0 0 0 0 0 0 0 0 0 0 0 1 2 3 3 6 12 16 17 17 18 21 22 19 16 15 17 16 12 8 6 6 4 1 0 0 0 0 0 0
0 0 0 0 0 0 0 0 0 0 0 0 0 0 0 0 0 1 3 7 13 16 16 15 18 20 19 18 18 18 15 11 6 5 6 5 2 1 0 0 0 0 0
0 0 0 0 0 0 0 0 0 0 0 0 0 0 0 0 0 0 0 2 6 10 13 14 15 17 18 19 22 20 15 10 6 4 6 5 3 1 0 0 0 0 0
0 0 0 0 0 0 0 0 0 0 0 0 0 0 0 0 0 0 0 0 1 4 6 9 11 14 16 19 22 20 14 9 7 6 6 6 3 1 0 0 0 1 1
0 0 0 0 0 0 0 0 0 0 0 0 0 0 0 0 0 0 0 0 0 1 2 4 6 9 13 17 18 17 13 11 9 7 7 7 5 2 0 0 1 2 2
0 0 0 0 0 0 0 0 0 0 0 0 0 0 0 0 0 1 1 0 0 0 0 2 4 7 10 13 13 12 12 12 11 9 8 8 6 2 0 0 2 3 3
0 0 0 0 0 0 0 0 0 0 0 0 0 0 0 0 0 1 1 1 1 0 0 2 4 7 9 10 9 9 10 12 12 9 7 6 5 3 1 1 2 3 3
0 0 0 0 0 0 0 0 0 0 0 0 0 0 0 0 0 1 1 1 1 1 1 2 3 6 7 8 6 6 7 8 8 7 5 4 3 2 2 2 2 2 2
0 0 0 0 0 0 0 0 0 0 0 0 0 0 0 0 0 0 0 1 1 1 1 2 2 3 5 5 5 5 5 5 4 3 3 2 1 1 1 1 1 1 1
0 0 0 0 0 0 0 0 0 0 0 0 0 0 0 0 0 0 0 0 0 0 1 1 1 1 2 3 4 4 5 5 2 1 2 1 0 0 0 0 0 0 0
0 0 0 0 0 0 0 0 0 0 0 0 0 0 0 0 0 0 0 0 0 0 0 0 0 0 1 2 2 3 4 3 1 0 0 0 0 0 0 0 0 0 0
0 0 0 0 0 0 0 0 0 0 0 0 0 0 0 0 0 0 0 0 0 0 0 0 0 0 0 1 1 1 1 1 0 0 0 0 0 0 0 0 0 0 0
0 0 0 0 0 0 0 0 0 0 0 0 0 0 0 0 0 0 0 0 0 0 0 0 0 0 0 0 0 0 0 0 0 0 0 0 0 0 0 0 0 0 0
0 0 0 0 0 0 0 0 0 0 0 0 0 0 0 0 0 0 0 0 0 0 0 0 0 0 0 0 0 0 0 0 0 0 0 0 0 0 0 0 0 0 0
0 0 0 0 0 0 0 0 0 0 0 0 0 0 0 0 0 0 0 0 0 0 0 0 0 0 0 0 0 0 0 0 0 0 0 0 0 0 0 0 0 0 0
0 0 0 0 0 0 0 0 0 0 0 0 0 0 0 0 0 0 0 0 0 0 0 0 0 0 0 0 0 0 0 0 0 0 0 0 0 0 0 0 0 0 0
0 0 0 0 0 0 0 0 0 0 0 0 0 0 0 0 0 0 0 0 0 0 0 0 0 0 0 0 0 0 0 0 0 0 0 0 0 0 0 0 0 0 0
0 0 0 0 0 0 0 0 0 0 0 0 0 0 0 0 0 0 0 0 0 0 0 0 0 0 0 0 0 0 0 0 0 0 0 0 0 0 0 0 0 0 0
0 0 0 0 0 0 0 0 0 0 0 0 0 0 0 0 0 0 0 0 0 0 0 0 0 0 0 0 0 0 0 0 0 0 0 0 0 0 0 0 0 0 0
0 0 0 0 0 0 0 0 0 0 0 0 0 0 0 0 0 0 0 0 0 0 0 0 0 0 0 0 0 0 0 0 0 0 0 0 0 0 0 0 0 0 0
0 0 0 0 0 0 0 0 0 0 0 0 0 0 0 0 0 0 0 0 0 0 0 0 0 0 0 0 0 0 0 0 0 0 0 0 0 0 0 0 0 0 0
0 0 0 0 0 0 0 0 0 0 0 0 0 0 0 0 0 0 0 0 0 0 0 0 0 0 0 0 0 0 0 0 0 0 0 0 0 0 0 0 0 0 0
0 0 0 0 0 0 0 0 0 0 0 0 0 0 0 0 0 0 0 0 0 0 0 0 0 0 0 0 0 0 0 0 0 0 0 0 0 0 0 0 0 0 0
Wind_Speed
11 10 10 10 10 10 10 9 8 8 7 5 4 4 4 4 4 3 4 4 5 5 5 4 4 4 4 4 4 3 2 2 1 1 1 1 2 2 3 2 2 4 6
10 10 10 10 10 10 10 10 9 8 7 5 5 4 4 3 4 3 4 4 4 4 4 5 4 5 4 4 5 4 2 2 2 2 1 1 2 2 2 2 2 2 4
11 10 10 9 9 10 10 10 10 9 8 7 5 5 4 3 3 4 3 3 3 3 3 4 4 4 5 4 5 5 5 3 3 2 3 3 3 1 2 3 3 3 2
9 8 9 9 10 10 9 10 10 10 9 7 6 6 5 4 5 4 3 3 3 3 3 4 4 4 4 5 5 5 4 5 4 2 2 2 2 2 2 2 2 3 2
9 9 9 9 10 9 9 9 10 10 9 8 7 6 5 5 4 4 4 3 2 2 2 2 2 3 3 5 5 5 5 4 4 3 2 2 1 2 2 2 2 1 1
8 8 8 7 8 8 8 8 9 9 9 8 7 7 7 7 6 6 5 3 2 2 2 2 1 2 2 4 4 5 6 5 5 4 3 3 3 3 3 3 2 2 1
6 7 7 7 7 8 8 8 8 8 9 9 8 8 7 7 6 6 5 4 3 2 3 2 2 2 2 3 4 4 5 5 5 5 4 4 4 2 3 3 2 1 1
5 6 7 6 7 7 8 8 9 8 9 9 8 8 7 5 4 5 4 4 3 3 3 3 2 2 2 2 3 3 4 4 4 5 4 3 3 2 3 3 3 2 1
6 6 6 6 6 7 7 7 8 8 8 9 8 7 8 6 6 6 5 4 3 4 4 3 2 1 1 1 3 3 3 3 4 4 4 3 3 3 3 2 3 4 3
5 5 5 6 5 5 5 6 6 7 7 8 8 7 7 7 6 6 6 6 5 5 4 4 3 3 1 0 1 2 2 3 3 3 4 4 3 3 3 3 3 3 3
4 4 3 4 4 5 5 5 6 6 7 7 7 8 7 7 7 7 7 6 6 6 5 5 4 3 2 1 1 1 2 2 2 2 3 3 3 3 3 3 3 3 3
3 3 3 3 4 4 5 5 6 6 6 6 7 7 7 8 8 8 8 7 7 6 6 5 4 4 4 3 2 1 2 2 2 2 2 2 2 3 3 3 3 3 3
3 3 3 3 3 4 4 5 5 5 5 6 7 7 8 8 8 8 8 8 8 7 7 7 6 6 5 4 4 2 1 2 2 3 3 3 3 2 2 3 3 2 3
4 4 3 3 3 3 4 5 5 5 5 6 7 7 8 8 8 8 8 8 8 8 8 8 8 7 6 7 6 4 3 3 3 2 3 3 3 2 2 2 3 2 3
4 4 4 3 3 3 4 4 4 5 5 6 7 7 7 7 7 7 8 8 8 9 8 8 8 7 7 8 8 6 6 5 6 5 5 4 5 5 3 3 2 2 2
4 4 4 4 4 3 3 3 4 4 5 6 6 6 6 7 7 7 7 7 8 8 8 8 8 9 9 12 12 8 5 5 5 5 4 5 6 7 8 8 6 5 4
2 3 4 4 4 4 4 4 4 5 6 6 5 6 6 7 7 7 7 6 7 7 7 7 7 8 10 14 13 11 5 5 5 5 4 4 6 6 4 6 8 8 8
2 3 3 3 3 4 3 3 4 5 6 5 5 6 6 6 6 7 7 6 5 5 5 6 7 7 11 16 13 9 5 5 5 5 6 5 6 6 5 5 7 7 7
3 3 2 2 3 4 4 3 4 5 5 5 5 5 5 5 6 6 6 5 5 5 5 5 6 7 9 16 14 10 4 4 6 6 7 7 7 10 8 6 7 6 5
3 1 1 2 3 3 2 3 5 5 5 4 4 4 4 4 5 5 5 4 4 4 4 5 6 7 7 14 16 12 4 5 5 6 7 11 9 10 8 5 5 6 4
3 1 1 1 2 2 2 3 5 5 4 4 4 3 3 3 4 4 4 4 4 4 4 5 5 6 8 11 14 13 5 4 5 5 5 5 11 11 10 7 5 4 3
4 2 1 0 1 1 2 3 4 3 3 2 2 2 3 4 4 3 4 4 4 4 5 4 5 4 6 8 10 12 11 8 6 4 4 4 8 9 8 6 6 6 5
5 3 2 2 1 1 1 2 3 2 2 1 1 1 1 2 3 3 4 4 4 4 4 4 4 4 4 6 12 11 10 9 5 3 4 4 6 6 5 7 7 5 4
5 4 4 3 2 3 2 2 2 1 1 1 1 1 2 2 3 3 3 4 4 4 4 4 4 4 4 5 6 5 4 5 5 3 3 4 5 4 4 4 4 4 4
5 4 4 3 2 3 3 3 2 2 2 2 2 3 3 2 2 2 2 3 3 2 2 3 4 3 4 4 7 5 4 4 3 3 1 2 2 3 3 3 4 4 4
6 5 5 4 3 3 4 4 4 3 3 1 1 1 2 2 1 2 2 2 2 3 3 3 3 2 3 3 6 7 8 8 8 4 3 3 3 3 3 3 3 3 3
Wind_Direction
5 17 11 7 1 357 354 348 346 343 339 330 320 313 305 303 294 285 277 272 260 249 229 221 216 219 213 203 194 188 194 205 175 203 308 283 222 211 195 210 197 188 166
0 11 10 7 1 359 355 347 345 343 338 326 318 300 295 293 286 282 280 273 260 249 241 228 217 210 212 209 195 185 176 205 192 167 161 290 306 294 212 197 218 214 169
6 8 7 4 2 2 356 348 347 348 342 335 330 323 316 311 305 298 287 280 274 258 242 239 229 216 206 208 202 191 180 192 212 189 162 169 210 251 277 211 206 212 196
8 6 7 3 1 0 355 352 351 350 347 344 342 337 330 319 310 312 308 305 295 279 256 245 228 220 209 202 202 196 189 183 205 210 191 184 156 163 252 271 223 202 185
7 7 9 4 359 358 357 356 353 354 351 350 348 346 339 325 318 318 314 313 311 299 287 267 239 222 212 202 196 195 194 192 197 193 182 195 208 201 185 240 276 316 230
10 7 9 6 357 358 0 358 358 354 352 352 356 355 345 339 336 333 326 321 314 311 320 305 272 238 225 209 197 194 192 193 194 194 194 183 181 194 191 209 219 218 249
17 10 8 5 358 359 1 357 360 357 356 355 359 356 351 343 339 336 334 333 329 327 321 314 280 253 236 211 194 191 190 193 192 192 199 196 196 185 185 192 194 188 220
17 15 12 4 357 359 1 360 1 1 360 358 357 354 354 346 338 342 348 352 344 331 328 327 301 267 233 206 189 191 192 195 198 197 192 185 182 183 183 175 164 173 209
16 17 12 6 2 2 4 4 4 5 2 1 358 360 0 358 355 356 357 356 350 345 353 352 344 321 249 197 183 187 189 187 194 197 190 178 173 181 186 179 171 170 185
17 18 13 7 6 4 4 4 8 7 3 3 3 5 1 2 2 5 5 2 357 356 357 4 10 9 12 131 149 155 171 169 179 182 180 178 176 177 181 181 183 182 174
16 17 16 10 6 9 8 5 13 12 7 5 4 3 2 9 13 12 5 4 2 3 6 11 12 12 18 30 88 115 132 149 153 154 169 179 173 172 179 178 185 185 171
18 30 22 16 9 9 10 14 17 16 12 7 6 6 6 13 16 14 8 7 8 7 10 14 17 27 33 35 51 89 125 138 148 142 133 155 163 170 171 174 181 178 179
20 36 24 22 10 13 19 19 20 18 17 15 12 11 15 14 13 13 13 12 11 14 17 18 24 28 26 25 19 39 87 133 145 135 137 138 138 152 159 162 155 161 163
23 36 25 25 18 29 30 21 17 20 27 27 20 16 17 15 15 14 16 16 14 19 21 23 28 28 31 30 20 23 44 68 79 97 103 109 124 125 126 131 133 139 139
24 31 32 22 26 45 39 30 23 29 36 37 28 17 17 17 17 16 19 19 18 22 23 26 29 29 33 29 23 21 43 53 56 56 64 74 86 85 87 102 107 116 120
29 24 26 19 20 43 52 42 39 40 45 45 32 18 21 19 14 19 21 20 21 22 27 29 30 34 32 23 26 26 41 52 58 61 61 69 76 78 79 85 91 95 103
46 33 21 20 13 29 45 46 46 49 49 44 38 26 24 21 14 17 21 22 24 25 30 30 30 36 30 26 24 24 43 54 54 54 54 59 65 67 80 85 79 65 62
72 51 20 7 2 25 39 47 66 63 57 43 38 35 27 20 15 15 16 21 24 29 30 30 28 34 28 25 23 24 47 55 57 54 53 59 56 48 60 82 78 68 50
90 71 353 341 17 23 19 26 59 66 59 47 42 37 29 21 18 15 13 17 21 26 29 30 33 35 27 23 25 30 49 56 62 61 57 56 53 39 57 86 93 87 75
113 107 293 7 31 19 4 26 60 63 54 45 48 41 31 27 25 13 9 12 20 23 33 40 42 40 34 28 29 31 45 54 58 63 58 49 46 41 54 77 93 93 94
136 169 285 36 24 359 4 44 62 67 60 46 45 35 25 36 39 15 5 12 19 26 37 47 49 49 40 31 32 33 36 43 56 55 48 40 40 43 51 66 74 84 92
160 177 261 18 58 13 8 70 80 86 93 81 64 50 37 27 31 16 10 15 16 28 34 38 43 47 43 35 29 36 42 44 59 58 49 41 41 44 50 58 57 58 67
167 173 216 233 185 134 38 74 108 108 124 132 128 108 89 75 34 15 20 20 20 26 29 31 34 40 40 30 27 34 46 46 54 57 59 51 43 44 55 57 53 53 68
172 177 211 229 191 151 149 126 124 169 207 189 169 137 82 70 61 32 27 38 26 21 20 23 26 31 41 24 8 5 30 44 47 40 52 53 49 56 52 47 49 59 72
170 179 208 226 204 170 172 157 166 229 241 218 180 143 126 107 85 86 49 53 70 64 34 15 17 26 30 11 5 8 9 9 12 353 38 57 55 56 52 49 48 51 59
170 181 207 223 218 186 179 163 166 231 263 271 92 118 142 147 161 154 131 62 89 114 87 65 55 69 60 15 14 11 4 1 1 21 50 54 55 60 61 60 55 54 53